NOAA 16 DEB, 41073

Orbit data source: Space-Track

NOAA 16 DEB, 41073 is space debris in SSO originally from a launch on Thu, 21 Sep 2000 UTC launched from the Air Force Western Test Range (AFWTR). Debris objects in space refer to the collection of defunct objects orbiting the Earth. Examples of debris include non-operational satellites, rocket bodies, and fragments generated from explosions, collisions, or faulty payload assembly.

Loading next visibility...
Identifier
41073, 2000-055AG
Orbit
SSO
Country
Flag of USUS
Related business
Manufacturer
Unknown
Mission
Spacecraft
Bus & Motor
Unknown
Mass
Unknown
Launch date (UTC)
2000-09-21 (25 years ago)
Launch vehicle
Unknown
Launch site
Air Force Western Test Range (AFWTR)
Object type
Payload
Rocket body
Debris
Shape & HBR
Unknown
Radar Cross Section
Small (<0.1 m²)

Expand to show TLE details & history
Last TLE update: 22 hours ago

TLE from 22 hours ago
0 NOAA 16 DEB
1 41073U 00055AG  25242.07914924  .00004039  00000-0  15687-2 0  9991
2 41073  98.7776 346.9540 0017458 309.5488  50.4150 14.30367757505721
Epoch: 2025-08-30T01:53Z
TLE epoch observation values (Epoch: 2025-08-30T01:53:58.494Z)
Latitude
-0.0001°
Longitude
-20.05831°
Altitude
785.465 km
Speed
7.465 km/s
True Right ascension
23h 07m 48s
True Declination
0° 00' 00"
Sunlit
Object was in full shadow at epoch
Visualization orbit readout
Latitude
Unknown
Longitude
Unknown
Altitude
Unknown
Speed
Unknown
Apparent Right ascension
Unknown
Apparent Declination
Unknown
Sunlit
N/A
Visualization observer readout
Local Sidereal Time
15:44:40
Azimuth
Unknown
Elevation
Unknown
Doppler factor
Unknown
Orbital elements
Apogee altitude
800.16 km
Perigee altitude
775.14 km
Semi-major axis
7,165.787 km
Eccentricity
0.00175
Inclination
98.7776°
RAAN
346.954°
Arg. of periapsis
309.5488°
True anomaly
50.56939°
Mean anomaly
50.415°
Eccentric anomaly
50.49217°
Mean motion
3.57806 °/min
Orbital period
100.61 mins
BSTAR
0.0015687
Loading maneuver chart data...
Computing Atmospheric mass density...
Loading historical data...
Loading historical data...
Loading historical data...
Loading historical data...
Loading historical data...
Loading historical data...
Loading historical data...

Documentation

Showing up to 5 results
|